Flight Track Log - Related Links

Times and Time Zones

All times are in EST time to prevent confusion due to time zone crossing. See the DAL61 flight status page for this flight to view local times or setup timezone preferences in your user account.

Time Position Orientation Groundspeed Altitude Reporting Facility
EST Latitude Longitude Course Direction KTS MPH feet Rate Location/Type
Thu 10:24:14 PM 33.6333 -84.3500 145° Southeast 201 231 3,000  Level Atlanta TRACON
Thu 10:25:08 PM 33.6000 -84.2833 121° Southeast 256 295 4,500 2,053 Climbing Atlanta TRACON
Thu 10:26:08 PM 33.5333 -84.2667 168° South 268 308 6,900 2,291 Climbing Atlanta TRACON
Thu 10:27:00 PM 33.2632 -84.1463 140° Southeast  Level FlightAware Approximate
Thu 10:27:53 PM 33.4017 -84.2778 184° South 309 356 10,800  Level Atlanta Center
Thu 10:28:00 PM 33.1659 -84.0491 140° Southeast  Level FlightAware Approximate
Thu 10:28:53 PM 33.3183 -84.2178 149° Southeast 309 356 12,200  Level Atlanta Center
Thu 10:29:00 PM 33.0723 -83.9574 145° Southeast  Level FlightAware Approximate
Thu 10:29:53 PM 33.2306 -84.1406 144° Southeast 361 415 13,600  Level Atlanta Center
Thu 10:30:53 PM 33.1325 -84.0586 145° Southeast 411 473 15,500 2,150 Climbing Atlanta Center
Thu 10:31:53 PM 33.0325 -83.9794 146° Southeast 431 496 17,900 2,200 Climbing Atlanta Center
Thu 10:32:53 PM 32.9300 -83.8978 146° Southeast 436 502 19,900 1,650 Climbing Atlanta Center
Thu 10:33:53 PM 32.8256 -83.8139 146° Southeast 442 509 21,200 1,500 Climbing Atlanta Center
Thu 10:34:53 PM 32.7167 -83.7278 146° Southeast 456 525 22,900 1,550 Climbing Atlanta Center
Thu 10:35:53 PM 32.6058 -83.6369 145° Southeast 472 543 24,300 1,250 Climbing Atlanta Center
Thu 10:36:53 PM 32.5033 -83.5586 147° Southeast 487 560 25,400 1,500 Climbing Atlanta Center
Thu 10:37:53 PM 32.3903 -83.4658 145° Southeast 487 560 27,300 1,600 Climbing Atlanta Center
Thu 10:38:53 PM 32.2750 -83.3756 146° Southeast 487 560 28,600 1,450 Climbing Atlanta Center
Thu 10:39:53 PM 32.1639 -83.2856 146° Southeast 487 560 30,200 1,468 Climbing Atlanta Center
Thu 10:41:12 PM 32.0075 -83.1622 146° Southeast 487 560 32,000 777 Climbing Jacksonville Center
Thu 10:42:12 PM 31.9011 -83.0811 147° Southeast 474 545 32,000  Level Jacksonville Center
Thu 10:43:12 PM 31.7947 -82.9953 146° Southeast 469 540 32,000  Level Jacksonville Center
Thu 10:44:12 PM 31.6842 -82.9072 146° Southeast 469 540 32,000  Level Jacksonville Center
Thu 10:45:12 PM 31.5714 -82.8194 146° Southeast 480 552 32,000  Level Jacksonville Center
Thu 10:46:12 PM 31.4586 -82.7342 147° Southeast 480 552 32,000  Level Jacksonville Center
Thu 10:47:12 PM 31.3458 -82.6494 147° Southeast 480 552 32,000  Level Jacksonville Center
Thu 10:48:12 PM 31.2453 -82.5742 147° Southeast 480 552 32,000 -50 Level Jacksonville Center
Thu 10:49:12 PM 31.1386 -82.4919 147° Southeast 475 547 31,900  Descending Jacksonville Center
Thu 10:50:12 PM 31.0278 -82.4078 147° Southeast 475 547 32,000  Climbing Jacksonville Center
Thu 10:51:12 PM 30.9189 -82.3236 146° Southeast 475 547 31,900  Descending Jacksonville Center
Thu 10:52:12 PM 30.8139 -82.2444 147° Southeast 470 541 32,000 15 Climbing Jacksonville Center
Thu 10:58:03 PM 30.2063 -81.6989 147° Southeast 487 560 32,000  Level FlightAware ADS-B
Thu 10:59:18 PM 30.1091 -81.5411 125° Southeast 484 557 32,000  Level FlightAware ADS-B
Thu 11:00:17 PM 30.0336 -81.4184 125° Southeast 479 551 32,000  Level FlightAware ADS-B
Thu 11:01:00 PM 29.9884 -81.3463 126° Southeast 469 540 32,000  Level FlightAware ADS-B
Thu 11:01:41 PM 29.9282 -81.2490 125° Southeast 478 550 32,000  Level FlightAware ADS-B
Thu 11:02:22 PM 29.8735 -81.1602 125° Southeast 490 564 32,000  Level FlightAware ADS-B
Thu 11:03:01 PM 29.8213 -81.0770 126° Southeast 495 570 32,000  Level FlightAware ADS-B
Thu 11:03:43 PM 29.7886 -81.0248 126° Southeast 500 575 32,000  Level FlightAware ADS-B
Thu 11:04:24 PM 29.7093 -80.8981 126° Southeast 505 581 32,000  Level FlightAware ADS-B
Thu 11:05:17 PM 29.6401 -80.7882 126° Southeast 507 583 32,000  Level FlightAware ADS-B
Thu 11:05:52 PM 29.5878 -80.7072 127° Southeast 503 579 32,000  Level FlightAware ADS-B
Thu 11:06:44 PM 29.5184 -80.6008 127° Southeast 497 572 32,000  Level FlightAware ADS-B
Thu 11:07:26 PM 29.4579 -80.5075 127° Southeast 490 564 32,000  Level FlightAware ADS-B
Thu 11:08:01 PM 29.4110 -80.4365 127° Southeast 482 555 32,000  Level FlightAware ADS-B
Thu 11:08:47 PM 29.3495 -80.3450 128° Southeast 474 545 32,000  Level FlightAware ADS-B
Thu 11:09:27 PM 29.2992 -80.2704 128° Southeast 469 540 32,000  Level FlightAware ADS-B
Thu 11:10:07 PM 29.2435 -80.1873 128° Southeast 461 531 32,000  Level FlightAware ADS-B
Thu 11:10:43 PM 29.1965 -80.1174 128° Southeast 457 526 32,000  Level FlightAware ADS-B
Thu 11:14:40 PM 28.8950 -79.6721 128° Southeast 453 521 32,000  Level FlightAware ADS-B
Thu 11:15:32 PM 28.8506 -79.5958 128° Southeast 452 520 32,000  Level Miami Center
Thu 11:16:32 PM 28.7733 -79.4828 128° Southeast 452 520 32,000  Level Miami Center
Thu 11:17:32 PM 28.6983 -79.3672 126° Southeast 452 520 32,000 -50 Level Miami Center
Thu 11:18:32 PM 28.6253 -79.2450 124° Southeast 457 526 31,900 -50 Descending Miami Center
Thu 11:19:32 PM 28.6089 -79.0886 97° East 463 533 31,900  Level Miami Center
Thu 11:20:32 PM 28.6031 -78.9278 92° East 476 548 31,900  Level Miami Center
Thu 11:21:32 PM 28.5969 -78.7692 92° East 495 570 31,900  Level Miami Center
Thu 11:22:32 PM 28.5864 -78.6083 94° East 508 585 31,900  Level Miami Center
Thu 11:23:32 PM 28.5819 -78.4475 92° East 508 585 31,900  Level Miami Center
Thu 11:24:32 PM 28.5461 -78.2933 105° East 508 585 31,900 50 Level Miami Center
Thu 11:25:32 PM 28.4806 -78.1553 118° Southeast 496 571 32,000 50 Climbing Miami Center
Thu 11:26:32 PM 28.4022 -78.0294 125° Southeast 484 557 32,000 -50 Level Miami Center
Thu 11:27:32 PM 28.3133 -77.9128 131° Southeast 484 557 31,900  Descending Miami Center
Thu 11:32:43 PM 27.8368 -77.2891 131° Southeast 477 549 32,000 17 Climbing FlightAware ADS-B
Thu 11:33:21 PM 27.7817 -77.2172 131° Southeast 481 554 32,000  Level FlightAware ADS-B
Thu 11:37:58 PM 27.3697 -76.6830 131° Southeast 489 563 32,000  Level FlightAware ADS-B
Thu 11:39:41 PM 27.2190 -76.4892 131° Southeast 489 563 32,000  Level FlightAware ADS-B
Thu 11:40:20 PM 27.1655 -76.4205 131° Southeast 488 562 32,000  Level FlightAware ADS-B
Thu 11:41:03 PM 27.0973 -76.3332 131° Southeast 486 559 32,000  Level FlightAware ADS-B
Thu 11:41:43 PM 27.0899 -76.3237 131° Southeast 486 559 32,000  Level FlightAware ADS-B
Thu 11:42:32 PM 26.9853 -76.1803 131° Southeast 486 559 32,000  Level Miami Center
Thu 11:43:32 PM 26.8969 -76.0711 132° Southeast 486 559 32,000  Level Miami Center
Thu 11:44:32 PM 26.8086 -75.9578 131° Southeast 485 558 32,000  Level Miami Center
Thu 11:45:32 PM 26.7222 -75.8492 132° Southeast 474 545 32,000  Level Miami Center
Thu 11:46:32 PM 26.6442 -75.7475 131° Southeast 465 535 32,000  Level Miami Center
Thu 11:47:32 PM 26.5492 -75.6322 133° Southeast 469 540 32,000  Level Miami Center
Thu 11:48:32 PM 26.4647 -75.5239 131° Southeast 469 540 32,000  Level Miami Center
Thu 11:49:32 PM 26.3717 -75.4092 132° Southeast 475 547 32,000  Level Miami Center
Thu 11:50:32 PM 26.2911 -75.3058 131° Southeast 470 541 32,000 200 Level Miami Center
Thu 11:51:32 PM 26.2044 -75.1958 131° Southeast 469 540 32,400 500 Climbing Miami Center
Thu 11:52:32 PM 26.1175 -75.0858 131° Southeast 469 540 33,000 300 Climbing Miami Center
Thu 11:53:32 PM 26.0219 -74.9742 134° Southeast 475 547 33,000  Level Miami Center
Thu 11:54:32 PM 25.9369 -74.8644 131° Southeast 475 547 33,000  Level Miami Center
Thu 11:55:32 PM 25.8517 -74.7550 131° Southeast 475 547 33,000  Level Miami Center
Thu 11:56:32 PM 25.7519 -74.6414 134° Southeast 488 562 33,000  Level Miami Center
Thu 11:57:32 PM 25.6689 -74.5347 131° Southeast 480 552 33,000  Level Miami Center
Thu 11:58:32 PM 25.5728 -74.4167 132° Southeast 491 565 33,000  Level Miami Center
Thu 11:59:32 PM 25.4833 -74.3103 133° Southeast 491 565 33,000  Level Miami Center
Fri 12:00:32 AM 25.4042 -74.2131 132° Southeast 486 559 33,000  Level Miami Center
Fri 12:01:32 AM 25.3122 -74.1003 132° Southeast 481 554 33,000  Level Miami Center
Fri 12:02:32 AM 25.2225 -73.9919 132° Southeast 492 566 33,000  Level Miami Center
Fri 12:03:32 AM 25.1283 -73.8750 132° Southeast 497 572 33,000  Level Miami Center
Fri 12:04:32 AM 25.0361 -73.7647 133° Southeast 490 564 33,000  Level Miami Center
Fri 12:05:32 AM 24.9439 -73.6550 133° Southeast 490 564 33,000  Level Miami Center
Fri 12:06:32 AM 24.8494 -73.5406 132° Southeast 490 564 33,000  Level Miami Center
Fri 12:07:32 AM 24.7633 -73.4331 131° Southeast 490 564 33,000  Level Miami Center
Fri 12:08:32 AM 24.6669 -73.3239 134° Southeast 490 564 33,000  Level Miami Center
Fri 12:09:32 AM 24.5764 -73.2122 132° Southeast 490 564 33,000  Level Miami Center
Fri 12:10:32 AM 24.4839 -73.1031 133° Southeast 490 564 33,000  Level Miami Center
Fri 12:11:32 AM 24.3892 -72.9919 133° Southeast 490 564 33,000  Level Miami Center
Fri 12:12:32 AM 24.2964 -72.8808 132° Southeast 490 564 33,000  Level Miami Center
Fri 12:13:33 AM 24.2036 -72.7700 133° Southeast 490 564 33,000  Level Miami Center
Fri 12:14:32 AM 24.1086 -72.6592 133° Southeast 490 564 33,000  Level Miami Center
Fri 12:15:32 AM 24.0219 -72.5531 132° Southeast 483 556 33,000  Level Miami Center
Fri 12:16:32 AM 23.9225 -72.4383 133° Southeast 493 567 33,000  Level Miami Center
Fri 12:17:32 AM 23.8294 -72.3303 133° Southeast 493 567 33,000  Level Miami Center
Fri 12:18:32 AM 23.7342 -72.2228 134° Southeast 493 567 33,000  Level Miami Center
Fri 12:19:32 AM 23.6411 -72.1128 133° Southeast 493 567 33,000  Level Miami Center
Fri 12:20:32 AM 23.5497 -72.0028 132° Southeast 493 567 33,000  Level Miami Center
Fri 12:21:32 AM 23.4567 -71.8978 134° Southeast 493 567 33,000  Level Miami Center
Fri 12:22:32 AM 23.3631 -71.7861 132° Southeast 493 567 33,000  Level Miami Center
Fri 12:23:32 AM 23.2697 -71.6792 134° Southeast 493 567 33,000  Level Miami Center
Fri 12:24:32 AM 23.1761 -71.5700 133° Southeast 493 567 33,000  Level Miami Center
Fri 12:25:32 AM 23.0803 -71.4611 134° Southeast 493 567 33,000  Level Miami Center
Fri 12:26:32 AM 22.9867 -71.3525 133° Southeast 493 567 33,000  Level Miami Center
Fri 12:27:32 AM 22.8931 -71.2461 134° Southeast 493 567 33,000  Level Miami Center
Fri 12:28:32 AM 22.7969 -71.1375 134° Southeast 493 567 33,000  Level Miami Center
Fri 12:29:32 AM 22.7031 -71.0294 133° Southeast 493 567 33,000  Level Miami Center
Fri 12:30:32 AM 22.6092 -70.9211 133° Southeast 493 567 33,000  Level Miami Center
Fri 12:31:32 AM 22.5111 -70.8133 135° Southeast 488 562 33,000  Level Miami Center
Fri 12:32:32 AM 22.4169 -70.7056 133° Southeast 495 570 33,000  Level Miami Center
Fri 12:35:32 AM 22.1172 -70.3658 134° Southeast 501 577 33,000  Level Miami Center
Fri 12:36:32 AM 22.0186 -70.2589 135° Southeast 501 577 33,000  Level Miami Center
Fri 12:37:32 AM 21.9222 -70.1497 134° Southeast 501 577 33,000  Level Miami Center
Fri 12:38:32 AM 21.8256 -70.0431 134° Southeast 501 577 33,000  Level Miami Center
Fri 12:39:32 AM 21.7269 -69.9319 134° Southeast 506 582 33,000  Level Miami Center
Fri 12:40:32 AM 21.6239 -69.8236 136° Southeast 506 582 33,000  Level Miami Center
Fri 12:51:15 AM 20.5833 -68.6667 135° Southeast 510 587 33,000  Level San Juan Center
Fri 12:52:00 AM 20.6128 -68.7044 134° Southeast  Level FlightAware Approximate
Fri 12:52:15 AM 20.4833 -68.5500 132° Southeast 510 587 33,000  Level San Juan Center
Fri 12:53:00 AM 20.5249 -68.6068 134° Southeast  Level FlightAware Approximate
Fri 12:53:15 AM 20.3667 -68.4500 141° Southeast 510 587 33,000  Level San Juan Center
Fri 12:54:00 AM 20.4370 -68.5094 134° Southeast  Level FlightAware Approximate
Fri 12:54:16 AM 20.2500 -68.3500 141° Southeast 510 587 33,000  Level San Juan Center
Fri 12:55:00 AM 20.3480 -68.4131 135° Southeast  Level FlightAware Approximate
Fri 12:55:16 AM 20.1500 -68.2667 142° Southeast 510 587 33,000  Level San Juan Center
Fri 12:56:00 AM 20.2590 -68.3169 135° Southeast  Level FlightAware Approximate
Fri 12:56:16 AM 20.0333 -68.1667 141° Southeast 510 587 33,000  Level San Juan Center
Fri 12:57:16 AM 19.9167 -68.0833 146° Southeast 510 587 33,000  Level San Juan Center
Fri 12:58:16 AM 19.8000 -67.9833 141° Southeast 510 587 33,000  Level San Juan Center
Fri 12:59:16 AM 19.7000 -67.9000 142° Southeast 510 587 33,000  Level San Juan Center
Fri 01:00:16 AM 19.5833 -67.8000 141° Southeast 510 587 33,000  Level San Juan Center
Fri 01:01:17 AM 19.4833 -67.7167 142° Southeast 490 564 33,000  Level San Juan Center
Fri 01:02:16 AM 19.3667 -67.6167 141° Southeast 500 575 33,000  Level San Juan Center
Fri 01:03:16 AM 19.2500 -67.5333 146° Southeast 500 575 33,000  Level San Juan Center
Fri 01:04:17 AM 19.1500 -67.4500 142° Southeast 490 564 33,000  Level San Juan Center
Fri 01:05:17 AM 19.0500 -67.3500 137° Southeast 490 564 33,000  Level San Juan Center
Fri 01:06:17 AM 18.9333 -67.2667 146° Southeast 490 564 33,000  Level San Juan Center
Fri 01:09:17 AM 18.6000 -67.0000 129° Southeast 500 575 33,000  Level San Juan Center
Fri 01:10:18 AM 18.5000 -66.9167 142° Southeast 490 564 33,000  Level San Juan Center
Fri 01:11:18 AM 18.3833 -66.8167 141° Southeast 500 575 33,000  Level San Juan Center
Fri 01:12:18 AM 18.2667 -66.7167 141° Southeast 510 587 33,000  Level San Juan Center
Fri 01:13:18 AM 18.1500 -66.6333 146° Southeast 510 587 33,000  Level San Juan Center
Fri 01:14:18 AM 18.0333 -66.5500 146° Southeast 510 587 33,000  Level San Juan Center
Fri 01:15:18 AM 17.9500 -66.4667 136° Southeast 500 575 33,000  Level San Juan Center
Fri 01:16:18 AM 17.8333 -66.3833 146° Southeast 500 575 33,000  Level San Juan Center
Fri 01:17:19 AM 17.7167 -66.2833 141° Southeast 500 575 33,000  Level San Juan Center
Fri 01:18:19 AM 17.6167 -66.2000 142° Southeast 500 575 33,000  Level San Juan Center
Fri 01:19:19 AM 17.5000 -66.1167 146° Southeast 490 564 33,000  Level San Juan Center
Fri 01:20:19 AM 17.4000 -66.0333 142° Southeast 490 564 33,000  Level San Juan Center
Fri 01:21:19 AM 17.2833 -65.9333 141° Southeast 490 564 33,000  Level San Juan Center
Fri 01:22:19 AM 17.1833 -65.8500 141° Southeast 490 564 33,000  Level San Juan Center
Fri 01:23:20 AM 17.0500 -65.7500 144° Southeast 490 564 33,000  Level San Juan Center
Fri 01:24:20 AM 16.9333 -65.6667 146° Southeast 490 564 33,000  Level San Juan Center
Fri 01:25:20 AM 16.8333 -65.5833 141° Southeast 490 564 33,000  Level San Juan Center
Fri 01:26:20 AM 16.7167 -65.4833 141° Southeast 490 564 33,000  Level San Juan Center
Fri 01:27:20 AM 16.6167 -65.4000 141° Southeast 490 564 33,000  Level San Juan Center
Fri 01:28:20 AM 16.5000 -65.3167 146° Southeast 490 564 33,000  Level San Juan Center
Fri 01:29:20 AM 16.4000 -65.2333 141° Southeast 490 564 33,000  Level San Juan Center
Fri 01:30:20 AM 16.2833 -65.1500 146° Southeast 490 564 33,000  Level San Juan Center
Fri 01:31:20 AM 16.1667 -65.0667 146° Southeast 500 575 33,000  Level San Juan Center
Fri 01:32:21 AM 16.0667 -64.9667 136° Southeast 490 564 33,000  Level San Juan Center
Fri 01:33:21 AM 15.9500 -64.8833 146° Southeast 490 564 33,000  Level San Juan Center
Fri 01:34:21 AM 15.8500 -64.8167 147° Southeast 480 552 33,000  Level San Juan Center
Fri 01:35:21 AM 15.7333 -64.7167 140° Southeast 500 575 33,000  Level San Juan Center
Fri 01:36:21 AM 15.6333 -64.6333 141° Southeast 490 564 33,000  Level San Juan Center
Fri 01:37:21 AM 15.5167 -64.5500 145° Southeast 490 564 33,000  Level San Juan Center
Fri 01:38:21 AM 15.4167 -64.4667 141° Southeast 490 564 33,000 -50 Level San Juan Center
Fri 01:39:22 AM 15.3000 -64.3667 140° Southeast 510 587 32,900  Descending San Juan Center
Fri 01:40:22 AM 15.1833 -64.2833 145° Southeast 490 564 33,000 Climbing San Juan Center
Fri 02:12:56 AM 11.6059 -61.5224 152° Southeast 485 558 33,000  Level FlightAware ADS-B (TTPP / POS)
Fri 02:13:00 AM 11.4318 -62.1468 152° Southeast  Level FlightAware Approximate
Fri 02:13:50 AM 11.5107 -61.4490 143° Southeast 484 557 33,000  Level FlightAware ADS-B (TTPP / POS)
Fri 02:19:03 AM 10.9503 -61.0164 153° Southeast 484 557 33,000  Level FlightAware ADS-B (TTPP / POS)
Fri 02:19:34 AM 10.8955 -60.9742 143° Southeast 483 556 33,000  Level FlightAware ADS-B (TTPP / POS)
Fri 02:20:01 AM 10.8478 -60.9376 143° Southeast 483 556 33,000  Level FlightAware ADS-B (TTPP / POS)
Fri 02:20:31 AM 10.7942 -60.8963 143° Southeast 483 556 33,000  Level FlightAware ADS-B (TTPP / POS)
Fri 02:21:01 AM 10.7410 -60.8552 143° Southeast 483 556 33,000  Level FlightAware ADS-B (TTPP / POS)
Fri 02:21:33 AM 10.6835 -60.8108 143° Southeast 484 557 33,000  Level FlightAware ADS-B (TTPP / POS)
Fri 02:22:01 AM 10.6335 -60.7723 143° Southeast 484 557 33,000  Level FlightAware ADS-B (TTPP / POS)
Fri 02:22:33 AM 10.5762 -60.7282 143° Southeast 483 556 33,000  Level FlightAware ADS-B (TTPP / POS)
Fri 02:23:03 AM 10.5227 -60.6871 143° Southeast 483 556 33,000  Level FlightAware ADS-B (TTPP / POS)
Fri 02:23:30 AM 10.4742 -60.6499 143° Southeast 483 556 33,000  Level FlightAware ADS-B (TTPP / POS)
Fri 02:23:59 AM 10.4284 -60.6146 143° Southeast 485 558 33,000  Level FlightAware ADS-B (TTPP / POS)
Fri 02:24:30 AM 10.3677 -60.5679 143° Southeast 486 559 33,000  Level FlightAware ADS-B (TTPP / POS)
Fri 02:24:52 AM 10.3316 -60.5402 143° Southeast 487 560 33,000  Level FlightAware ADS-B (TTPP / POS)
Fri 02:25:30 AM 10.2598 -60.4853 143° Southeast 488 562 33,000  Level FlightAware ADS-B (TTPP / POS)
Fri 02:25:59 AM 10.2173 -60.4525 143° Southeast 488 562 33,000  Level FlightAware ADS-B (TTPP / POS)
Fri 02:26:33 AM 10.1481 -60.3991 143° Southeast 488 562 33,000  Level FlightAware ADS-B (TTPP / POS)
Fri 02:26:58 AM 10.1016 -60.3634 143° Southeast 490 564 33,000  Level FlightAware ADS-B (TTPP / POS)
Fri 02:27:27 AM 10.0487 -60.3229 143° Southeast 490 564 33,000  Level FlightAware ADS-B (TTPP / POS)
Fri 02:27:58 AM 9.9919 -60.2791 143° Southeast 490 564 33,000  Level FlightAware ADS-B (TTPP / POS)
Fri 02:28:34 AM 9.9267 -60.2291 143° Southeast 490 564 33,000  Level FlightAware ADS-B (TTPP / POS)
Fri 02:29:03 AM 9.8769 -60.1911 143° Southeast 491 565 33,000  Level FlightAware ADS-B (TTPP / POS)
Fri 02:29:31 AM 9.8411 -60.1637 143° Southeast 491 565 33,000  Level FlightAware ADS-B (TTPP / POS)
Fri 02:30:04 AM 9.7639 -60.1044 143° Southeast 491 565 33,000  Level FlightAware ADS-B (TTPP / POS)
Fri 02:30:33 AM 9.7145 -60.0666 143° Southeast 491 565 33,000  Level FlightAware ADS-B (TTPP / POS)
Fri 02:30:44 AM 9.6925 -60.0498 143° Southeast 491 565 33,000  Level FlightAware ADS-B (TTPP / POS)
Fri 02:31:29 AM 9.6110 -59.9874 143° Southeast 491 565 33,000  Level FlightAware ADS-B (TTPP / POS)
Fri 02:32:03 AM 9.5478 -59.9391 143° Southeast 492 566 33,000  Level FlightAware ADS-B (TTPP / POS)
Fri 02:32:33 AM 9.5013 -59.9035 143° Southeast 491 565 33,000  Level FlightAware ADS-B (TTPP / POS)
Fri 02:33:02 AM 9.4424 -59.8586 143° Southeast 491 565 33,000  Level FlightAware ADS-B (TTPP / POS)
Fri 02:33:34 AM 9.3845 -59.8143 143° Southeast 492 566 33,000  Level FlightAware ADS-B (TTPP / POS)
Fri 02:34:00 AM 9.3473 -59.7858 143° Southeast 492 566 33,000  Level FlightAware ADS-B (TTPP / POS)
Fri 02:34:18 AM 9.3267 -59.7700 143° Southeast 492 566 33,000  Level FlightAware ADS-B (TTPP / POS)
Fri 02:34:57 AM 9.2343 -59.6997 143° Southeast 492 566 33,000  Level FlightAware ADS-B (TTPP / POS)
Fri 02:35:34 AM 9.1655 -59.6472 143° Southeast 493 567 33,000  Level FlightAware ADS-B (TTPP / POS)
Fri 02:36:30 AM 9.0639 -59.5696 143° Southeast 493 567 33,000  Level FlightAware ADS-B (TTPP / POS)
Fri 02:37:02 AM 9.0555 -59.5633 143° Southeast 494 568 33,000  Level FlightAware ADS-B (TTPP / POS)
Fri 02:37:31 AM 8.9521 -59.4846 143° Southeast 495 570 33,000  Level FlightAware ADS-B (TTPP / POS)
Fri 02:38:06 AM 8.8912 -59.4313 139° Southeast 497 572 33,000  Level FlightAware ADS-B (TTPP / POS)
Fri 02:38:54 AM 8.8207 -59.3476 130° Southeast 498 573 33,000  Level FlightAware ADS-B (TTPP / POS)
Fri 02:39:16 AM 8.7863 -59.3128 135° Southeast 498 573 33,000  Level FlightAware ADS-B (TTPP / POS)
Fri 02:40:36 AM 8.6347 -59.2059 145° Southeast 498 573 33,000  Level FlightAware ADS-B (TTPP / POS)
Fri 02:40:46 AM 8.6192 -59.1963 148° Southeast 498 573 33,000  Level FlightAware ADS-B (TTPP / POS)
Fri 02:43:00 AM 8.3555 -59.0655 154° Southeast  Level Estimated
Fri 02:44:00 AM 8.2374 -59.0070 154° Southeast  Level Estimated
Fri 02:45:00 AM 8.1193 -58.9485 154° Southeast  Level Estimated
Fri 02:46:00 AM 8.0012 -58.8900 154° Southeast  Level Estimated
Fri 02:47:00 AM 7.8830 -58.8316 154° Southeast  Level Estimated
Fri 02:48:00 AM 7.7649 -58.7732 154° Southeast  Level Estimated
Fri 02:49:00 AM 7.6467 -58.7148 154° Southeast  Level Estimated
Fri 02:50:00 AM 7.5286 -58.6565 154° Southeast  Level Estimated
Fri 02:51:00 AM 7.4104 -58.5982 154° Southeast  Level Estimated
Fri 02:52:00 AM 7.2923 -58.5400 154° Southeast  Level Estimated
Fri 02:53:00 AM 7.1741 -58.4817 154° Southeast  Level Estimated
Fri 02:54:00 AM 7.0559 -58.4235 154° Southeast  Level Estimated
Fri 02:55:00 AM 6.9377 -58.3654 154° Southeast  Level Estimated
Fri 02:56:00 AM 6.8195 -58.3072 154° Southeast  Level Estimated
Fri 02:57:00 AM 6.7013 -58.2491 154° Southeast  Level Estimated
Fri 02:58:00 AM 6.5831 -58.1910 154° Southeast  Level Estimated
Fri 02:59:00 AM 6.4649 -58.1329 154° Southeast  Level Estimated
Fri 03:00:00 AM 6.3467 -58.0749 154° Southeast  Level Estimated
Fri 03:01:00 AM 6.2284 -58.0169 154° Southeast  Level Estimated
Fri 03:02:00 AM 6.1102 -57.9589 154° Southeast  Level Estimated
Fri 03:03:00 AM 5.9920 -57.9010 154° Southeast  Level Estimated
Fri 03:04:00 AM 5.8737 -57.8430 154° Southeast  Level Estimated
Fri 03:05:00 AM 5.7554 -57.7851 154° Southeast  Level Estimated
Fri 03:06:00 AM 5.6372 -57.7273 154° Southeast  Level Estimated
Fri 03:07:00 AM 5.5189 -57.6694 154° Southeast  Level Estimated
Fri 03:08:00 AM 5.4007 -57.6116 154° Southeast  Level Estimated
Fri 03:09:00 AM 5.2824 -57.5538 154° Southeast  Level Estimated
Fri 03:10:00 AM 5.1641 -57.4960 154° Southeast  Level Estimated
Fri 03:11:00 AM 5.0458 -57.4382 154° Southeast  Level Estimated
Fri 03:12:00 AM 4.9275 -57.3805 154° Southeast  Level Estimated
Fri 03:13:00 AM 4.8092 -57.3227 154° Southeast  Level Estimated
Fri 03:14:00 AM 4.6909 -57.2650 154° Southeast  Level Estimated
Fri 03:15:00 AM 4.5726 -57.2073 154° Southeast  Level Estimated
Fri 03:16:00 AM 4.4543 -57.1497 154° Southeast  Level Estimated
Fri 03:17:00 AM 4.3360 -57.0920 154° Southeast  Level Estimated
Fri 03:18:00 AM 4.2176 -57.0344 154° Southeast  Level Estimated
Fri 03:19:00 AM 4.0993 -56.9768 154° Southeast  Level Estimated
Fri 03:20:00 AM 3.9810 -56.9192 154° Southeast  Level Estimated
Fri 03:21:00 AM 3.8627 -56.8616 154° Southeast  Level Estimated
Fri 03:22:00 AM 3.7443 -56.8040 154° Southeast  Level Estimated
Fri 03:23:00 AM 3.6260 -56.7465 154° Southeast  Level Estimated
Fri 03:24:00 AM 3.5076 -56.6889 154° Southeast  Level Estimated
Fri 03:25:00 AM 3.3893 -56.6314 154° Southeast  Level Estimated
Fri 03:26:00 AM 3.2709 -56.5739 154° Southeast  Level Estimated
Fri 03:27:00 AM 3.1526 -56.5164 154° Southeast  Level Estimated
Fri 03:28:00 AM 3.0342 -56.4590 154° Southeast  Level Estimated
Fri 03:29:00 AM 2.9158 -56.4015 154° Southeast  Level Estimated
Fri 03:30:00 AM 2.7975 -56.3441 154° Southeast  Level Estimated
Fri 03:31:00 AM 2.6791 -56.2866 154° Southeast  Level Estimated
Fri 03:32:00 AM 2.5607 -56.2292 154° Southeast  Level Estimated
Fri 03:33:00 AM 2.4424 -56.1718 154° Southeast  Level Estimated
Fri 03:34:00 AM 2.3240 -56.1143 154° Southeast  Level Estimated
Fri 03:35:00 AM 2.2056 -56.0569 154° Southeast  Level Estimated
Fri 03:36:00 AM 2.0872 -55.9996 154° Southeast  Level Estimated
Fri 03:37:00 AM 1.9689 -55.9422 154° Southeast  Level Estimated
Fri 03:38:00 AM 1.8505 -55.8848 154° Southeast  Level Estimated
Fri 03:39:00 AM 1.7321 -55.8274 154° Southeast  Level Estimated
Fri 03:40:00 AM 1.6137 -55.7701 154° Southeast  Level Estimated
Fri 03:41:00 AM 1.4953 -55.7127 154° Southeast  Level Estimated
Fri 03:42:00 AM 1.3800 -55.6569 154° Southeast  Level Estimated
Fri 03:43:00 AM 1.2646 -55.6010 154° Southeast  Level Estimated
Fri 03:44:00 AM 1.1493 -55.5451 154° Southeast  Level Estimated
Fri 03:45:00 AM 1.0339 -55.4893 154° Southeast  Level Estimated
Fri 03:46:00 AM 0.9186 -55.4334 154° Southeast  Level Estimated
Fri 03:47:00 AM 0.8033 -55.3776 154° Southeast  Level Estimated
Fri 03:48:00 AM 0.6879 -55.3218 154° Southeast  Level Estimated
Fri 03:49:00 AM 0.5726 -55.2659 154° Southeast  Level Estimated
Fri 03:50:00 AM 0.4572 -55.2101 154° Southeast  Level Estimated
Fri 03:51:00 AM 0.3419 -55.1543 154° Southeast  Level Estimated
Fri 03:52:00 AM 0.2265 -55.0984 154° Southeast  Level Estimated
Fri 03:53:00 AM 0.1112 -55.0426 154° Southeast  Level Estimated
Fri 03:54:00 AM -0.0042 -54.9868 154° Southeast  Level Estimated
Fri 03:55:00 AM -0.1195 -54.9309 154° Southeast  Level Estimated
Fri 03:56:00 AM -0.2349 -54.8751 154° Southeast  Level Estimated
Fri 03:57:00 AM -0.3502 -54.8193 154° Southeast  Level Estimated
Fri 03:58:00 AM -0.4656 -54.7634 154° Southeast  Level Estimated
Fri 03:59:00 AM -0.5809 -54.7076 154° Southeast  Level Estimated
Fri 04:00:00 AM -0.6963 -54.6518 154° Southeast  Level Estimated
Fri 04:01:00 AM -0.8116 -54.5959 154° Southeast  Level Estimated
Fri 04:02:00 AM -0.9270 -54.5401 154° Southeast  Level Estimated
Fri 04:03:00 AM -1.0423 -54.4842 154° Southeast  Level Estimated
Fri 04:04:00 AM -1.1576 -54.4284 154° Southeast  Level Estimated
Fri 04:05:00 AM -1.2730 -54.3725 154° Southeast  Level Estimated
Fri 04:06:00 AM -1.3883 -54.3167 154° Southeast  Level Estimated
Fri 04:07:00 AM -1.5037 -54.2608 154° Southeast  Level Estimated
Fri 04:08:00 AM -1.6190 -54.2049 154° Southeast  Level Estimated
Fri 04:09:00 AM -1.7343 -54.1490 154° Southeast  Level Estimated
Fri 04:10:00 AM -1.8497 -54.0931 154° Southeast  Level Estimated
Fri 04:11:00 AM -1.9650 -54.0373 154° Southeast  Level Estimated
Fri 04:12:00 AM -2.0803 -53.9813 154° Southeast  Level Estimated
Fri 04:13:00 AM -2.1957 -53.9254 154° Southeast  Level Estimated
Fri 04:14:00 AM -2.3110 -53.8695 154° Southeast  Level Estimated
Fri 04:15:00 AM -2.4263 -53.8136 154° Southeast  Level Estimated
Fri 04:16:00 AM -2.5416 -53.7576 154° Southeast  Level Estimated
Fri 04:17:00 AM -2.6569 -53.7017 154° Southeast  Level Estimated
Fri 04:18:00 AM -2.7723 -53.6457 154° Southeast  Level Estimated
Fri 04:19:00 AM -2.8876 -53.5898 154° Southeast  Level Estimated
Fri 04:20:00 AM -3.0029 -53.5338 154° Southeast  Level Estimated
Fri 04:21:00 AM -3.1182 -53.4778 154° Southeast  Level Estimated
Fri 04:22:00 AM -3.2335 -53.4218 154° Southeast  Level Estimated
Fri 04:23:00 AM -3.3488 -53.3658 154° Southeast  Level Estimated
Fri 04:24:00 AM -3.4641 -53.3097 154° Southeast  Level Estimated
Fri 04:25:00 AM -3.5794 -53.2537 154° Southeast  Level Estimated
Fri 04:26:00 AM -3.6947 -53.1977 154° Southeast  Level Estimated
Fri 04:27:00 AM -3.8100 -53.1416 154° Southeast  Level Estimated
Fri 04:28:00 AM -3.9253 -53.0855 154° Southeast  Level Estimated
Fri 04:29:00 AM -4.0406 -53.0294 154° Southeast  Level Estimated
Fri 04:30:00 AM -4.1558 -52.9733 154° Southeast  Level Estimated
Fri 04:31:00 AM -4.2711 -52.9171 154° Southeast  Level Estimated
Fri 04:32:00 AM -4.3864 -52.8610 154° Southeast  Level Estimated
Fri 04:33:00 AM -4.5016 -52.8048 154° Southeast  Level Estimated
Fri 04:34:00 AM -4.6169 -52.7486 154° Southeast  Level Estimated
Fri 04:35:00 AM -4.7322 -52.6924 154° Southeast  Level Estimated
Fri 04:36:00 AM -4.8474 -52.6362 154° Southeast  Level Estimated
Fri 04:37:00 AM -4.9627 -52.5799 154° Southeast  Level Estimated
Fri 04:38:00 AM -5.0779 -52.5237 154° Southeast  Level Estimated
Fri 04:39:00 AM -5.1932 -52.4674 154° Southeast  Level Estimated
Fri 04:40:00 AM -5.3084 -52.4111 154° Southeast  Level Estimated
Fri 04:41:00 AM -5.4236 -52.3548 154° Southeast  Level Estimated
Fri 04:42:00 AM -5.5388 -52.2984 154° Southeast  Level Estimated
Fri 04:43:00 AM -5.6540 -52.2421 154° Southeast  Level Estimated
Fri 04:44:00 AM -5.7693 -52.1857 154° Southeast  Level Estimated
Fri 04:45:00 AM -5.8845 -52.1293 154° Southeast  Level Estimated
Fri 04:46:00 AM -5.9997 -52.0728 154° Southeast  Level Estimated
Fri 04:47:00 AM -6.1149 -52.0164 154° Southeast  Level Estimated
Fri 04:48:00 AM -6.2301 -51.9599 154° Southeast  Level Estimated
Fri 04:49:00 AM -6.3452 -51.9034 154° Southeast  Level Estimated
Fri 04:50:00 AM -6.4604 -51.8468 154° Southeast  Level Estimated
Fri 04:51:00 AM -6.5756 -51.7903 154° Southeast  Level Estimated
Fri 04:52:00 AM -6.6907 -51.7337 154° Southeast  Level Estimated
Fri 04:53:00 AM -6.8059 -51.6771 154° Southeast  Level Estimated
Fri 04:54:00 AM -6.9211 -51.6204 154° Southeast  Level Estimated
Fri 04:55:00 AM -7.0360 -51.5639 154° Southeast  Level Estimated
Fri 04:56:00 AM -7.1509 -51.5073 154° Southeast  Level Estimated
Fri 04:57:00 AM -7.2658 -51.4507 154° Southeast  Level Estimated
Fri 04:58:00 AM -7.3807 -51.3940 154° Southeast  Level Estimated
Fri 04:59:00 AM -7.4956 -51.3373 154° Southeast  Level Estimated
Fri 05:00:00 AM -7.6105 -51.2806 154° Southeast  Level Estimated
Fri 05:01:00 AM -7.7254 -51.2239 154° Southeast  Level Estimated
Fri 05:02:00 AM -7.8403 -51.1671 154° Southeast  Level Estimated
Fri 05:03:00 AM -7.9552 -51.1103 154° Southeast  Level Estimated
Fri 05:04:00 AM -8.0701 -51.0535 154° Southeast  Level Estimated
Fri 05:05:00 AM -8.1849 -50.9966 154° Southeast  Level Estimated
Fri 05:06:00 AM -8.2998 -50.9397 154° Southeast  Level Estimated
Fri 05:07:00 AM -8.4146 -50.8828 154° Southeast  Level Estimated
Fri 05:08:00 AM -8.5294 -50.8258 154° Southeast  Level Estimated
Fri 05:09:00 AM -8.6443 -50.7688 154° Southeast  Level Estimated
Fri 05:10:00 AM -8.7591 -50.7118 154° Southeast  Level Estimated
Fri 05:11:00 AM -8.8739 -50.6547 154° Southeast  Level Estimated
Fri 05:12:00 AM -8.9887 -50.5976 154° Southeast  Level Estimated
Fri 05:13:00 AM -9.1035 -50.5405 154° Southeast  Level Estimated
Fri 05:14:00 AM -9.2183 -50.4833 154° Southeast  Level Estimated
Fri 05:15:00 AM -9.3330 -50.4260 154° Southeast  Level Estimated
Fri 05:16:00 AM -9.4478 -50.3688 154° Southeast  Level Estimated
Fri 05:17:00 AM -9.5626 -50.3115 154° Southeast  Level Estimated
Fri 05:18:00 AM -9.6773 -50.2542 154° Southeast  Level Estimated
Fri 05:19:00 AM -9.7921 -50.1968 154° Southeast  Level Estimated
Fri 05:20:00 AM -9.9068 -50.1394 154° Southeast  Level Estimated
Fri 05:21:00 AM -10.0215 -50.0820 154° Southeast  Level Estimated
Fri 05:22:00 AM -10.1362 -50.0245 154° Southeast  Level Estimated
Fri 05:23:00 AM -10.2509 -49.9669 154° Southeast  Level Estimated
Fri 05:24:00 AM -10.3656 -49.9094 154° Southeast  Level Estimated
Fri 05:25:00 AM -10.4803 -49.8517 154° Southeast  Level Estimated
Fri 05:26:00 AM -10.5950 -49.7941 154° Southeast  Level Estimated
Fri 05:27:00 AM -10.7096 -49.7364 154° Southeast  Level Estimated
Fri 05:28:00 AM -10.8243 -49.6786 154° Southeast  Level Estimated
Fri 05:29:00 AM -10.9389 -49.6208 154° Southeast  Level Estimated
Fri 05:30:00 AM -11.0535 -49.5630 154° Southeast  Level Estimated
Fri 05:31:00 AM -11.1681 -49.5051 154° Southeast  Level Estimated
Fri 05:32:00 AM -11.2827 -49.4472 154° Southeast  Level Estimated
Fri 05:33:00 AM -11.3973 -49.3893 154° Southeast  Level Estimated
Fri 05:34:00 AM -11.5119 -49.3312 154° Southeast  Level Estimated
Fri 05:35:00 AM -11.6265 -49.2732 154° Southeast  Level Estimated
Fri 05:36:00 AM -11.7410 -49.2150 154° Southeast  Level Estimated
Fri 05:37:00 AM -11.8556 -49.1569 154° Southeast  Level Estimated
Fri 05:38:00 AM -11.9701 -49.0987 154° Southeast  Level Estimated
Fri 05:39:00 AM -12.0846 -49.0404 154° Southeast  Level Estimated
Fri 05:40:00 AM -12.1991 -48.9821 154° Southeast  Level Estimated
Fri 05:41:00 AM -12.3136 -48.9238 154° Southeast  Level Estimated
Fri 05:42:00 AM -12.4281 -48.8653 154° Southeast  Level Estimated
Fri 05:43:00 AM -12.5426 -48.8069 154° Southeast  Level Estimated
Fri 05:44:00 AM -12.6571 -48.7484 153° Southeast  Level Estimated
Fri 05:45:00 AM -12.7715 -48.6898 153° Southeast  Level Estimated
Fri 05:46:00 AM -12.8859 -48.6312 153° Southeast  Level Estimated
Fri 05:47:00 AM -13.0003 -48.5725 153° Southeast  Level Estimated
Fri 05:48:00 AM -13.1148 -48.5138 153° Southeast  Level Estimated
Fri 05:49:00 AM -13.2291 -48.4550 153° Southeast  Level Estimated
Fri 05:50:00 AM -13.3435 -48.3962 153° Southeast  Level Estimated
Fri 05:51:00 AM -13.4579 -48.3373 153° Southeast  Level Estimated
Fri 05:52:00 AM -13.5723 -48.2783 153° Southeast  Level Estimated
Fri 05:53:00 AM -13.6866 -48.2193 153° Southeast  Level Estimated
Fri 05:54:00 AM -13.8009 -48.1603 153° Southeast  Level Estimated
Fri 05:55:00 AM -13.9152 -48.1011 153° Southeast  Level Estimated
Fri 05:56:00 AM -14.0295 -48.0420 153° Southeast  Level Estimated
Fri 05:57:00 AM -14.1438 -47.9827 153° Southeast  Level Estimated
Fri 05:58:00 AM -14.2581 -47.9234 153° Southeast  Level Estimated
Fri 05:59:00 AM -14.3723 -47.8641 153° Southeast  Level Estimated
Fri 06:00:00 AM -14.4866 -47.8046 153° Southeast  Level Estimated
Fri 06:01:00 AM -14.6008 -47.7452 153° Southeast  Level Estimated
Fri 06:02:00 AM -14.7150 -47.6856 153° Southeast  Level Estimated
Fri 06:03:00 AM -14.8292 -47.6260 153° Southeast  Level Estimated
Fri 06:04:00 AM -14.9434 -47.5663 153° Southeast  Level Estimated
Fri 06:05:00 AM -15.0575 -47.5066 153° Southeast  Level Estimated
Fri 06:06:00 AM -15.1717 -47.4468 153° Southeast  Level Estimated
Fri 06:07:00 AM -15.2852 -47.3873 153° Southeast  Level Estimated
Fri 06:08:00 AM -15.3987 -47.3277 153° Southeast  Level Estimated
Fri 06:09:00 AM -15.5121 -47.2680 153° Southeast  Level Estimated
Fri 06:10:00 AM -15.6256 -47.2083 153° Southeast  Level Estimated
Fri 06:11:00 AM -15.7390 -47.1485 153° Southeast  Level Estimated
Fri 06:12:00 AM -15.8525 -47.0886 153° Southeast  Level Estimated
Fri 06:13:00 AM -15.9659 -47.0287 153° Southeast  Level Estimated
Fri 06:14:00 AM -16.0793 -46.9687 153° Southeast  Level Estimated
Fri 06:15:00 AM -16.1926 -46.9087 153° Southeast  Level Estimated
Fri 06:16:00 AM -16.3060 -46.8485 153° Southeast  Level Estimated
Fri 06:17:00 AM -16.4193 -46.7883 153° Southeast  Level Estimated
Fri 06:18:00 AM -16.5326 -46.7281 153° Southeast  Level Estimated
Fri 06:19:00 AM -16.6460 -46.6677 153° Southeast  Level Estimated
Fri 06:20:00 AM -16.7593 -46.6073 153° Southeast  Level Estimated
Fri 06:21:00 AM -16.8725 -46.5468 153° Southeast  Level Estimated
Fri 06:22:00 AM -16.9858 -46.4863 153° Southeast  Level Estimated
Fri 06:23:00 AM -17.0990 -46.4256 153° Southeast  Level Estimated
Fri 06:24:00 AM -17.2122 -46.3649 153° Southeast  Level Estimated
Fri 06:25:00 AM -17.3254 -46.3041 153° Southeast  Level Estimated
Fri 06:26:00 AM -17.4386 -46.2433 153° Southeast  Level Estimated
Fri 06:27:00 AM -17.5518 -46.1824 153° Southeast  Level Estimated
Fri 06:28:00 AM -17.6649 -46.1213 153° Southeast  Level Estimated
Fri 06:29:00 AM -17.7780 -46.0603 153° Southeast  Level Estimated
Fri 06:30:00 AM -17.8911 -45.9991 153° Southeast  Level Estimated
Fri 06:31:00 AM -18.0042 -45.9379 153° Southeast  Level Estimated
Fri 06:32:00 AM -18.1173 -45.8765 153° Southeast  Level Estimated
Fri 06:33:00 AM -18.2304 -45.8151 153° Southeast  Level Estimated
Fri 06:34:00 AM -18.3434 -45.7537 153° Southeast  Level Estimated
Fri 06:35:00 AM -18.4564 -45.6921 153° Southeast  Level Estimated
Fri 06:36:00 AM -18.5694 -45.6305 153° Southeast  Level Estimated
Fri 06:37:00 AM -18.6824 -45.5687 153° Southeast  Level Estimated
Fri 06:38:00 AM -18.7953 -45.5069 153° Southeast  Level Estimated
Fri 06:39:00 AM -18.9082 -45.4450 153° Southeast  Level Estimated
Fri 06:40:00 AM -19.0212 -45.3831 153° Southeast  Level Estimated
Fri 06:41:00 AM -19.1340 -45.3210 153° Southeast  Level Estimated
Fri 06:42:00 AM -19.2469 -45.2589 153° Southeast  Level Estimated
Fri 06:43:00 AM -19.3598 -45.1967 153° Southeast  Level Estimated
Fri 06:44:00 AM -19.4726 -45.1344 152° Southeast  Level Estimated
Fri 06:45:00 AM -19.5854 -45.0720 152° Southeast  Level Estimated
Fri 06:46:00 AM -19.6982 -45.0095 152° Southeast  Level Estimated
Fri 06:47:00 AM -19.8109 -44.9469 152° Southeast  Level Estimated
Fri 06:48:00 AM -19.9237 -44.8843 152° Southeast  Level Estimated
Fri 06:49:00 AM -20.0360 -44.8217 152° Southeast  Level Estimated
Fri 06:50:00 AM -20.1483 -44.7591 152° Southeast  Level Estimated
Fri 06:51:00 AM -20.2605 -44.6964 152° Southeast  Level Estimated
Fri 06:52:00 AM -20.3727 -44.6336 152° Southeast  Level Estimated
Fri 06:53:00 AM -20.4850 -44.5708 152° Southeast  Level Estimated
Fri 06:54:00 AM -20.5972 -44.5078 152° Southeast  Level Estimated
Fri 06:55:00 AM -20.7093 -44.4447 152° Southeast  Level Estimated
Fri 06:56:00 AM -20.8215 -44.3815 152° Southeast  Level Estimated
Fri 06:57:00 AM -20.9336 -44.3183 152° Southeast  Level Estimated
Fri 06:58:00 AM -21.0457 -44.2549 152° Southeast  Level Estimated
Fri 06:59:00 AM -21.1578 -44.1915 152° Southeast  Level Estimated
Fri 07:00:00 AM -21.2698 -44.1279 152° Southeast  Level Estimated
Fri 07:01:00 AM -21.3819 -44.0643 152° Southeast  Level Estimated
Fri 07:02:00 AM -21.4939 -44.0006 152° Southeast  Level Estimated
Fri 07:03:00 AM -21.6059 -43.9367 152° Southeast  Level Estimated
Fri 07:04:00 AM -21.7178 -43.8728 152° Southeast  Level Estimated
Fri 07:05:00 AM -21.8297 -43.8088 152° Southeast  Level Estimated
Fri 07:06:00 AM -21.9417 -43.7446 152° Southeast  Level Estimated
Fri 07:07:00 AM -22.0535 -43.6804 152° Southeast  Level Estimated
Fri 07:08:00 AM -22.1654 -43.6161 152° Southeast  Level Estimated
Fri 07:09:00 AM -22.2772 -43.5516 152° Southeast  Level Estimated
Fri 07:10:00 AM -22.3890 -43.4871 152° Southeast  Level Estimated
Fri 07:11:00 AM -22.5008 -43.4224 152° Southeast  Level Estimated
Fri 07:12:00 AM -22.6126 -43.3577 152° Southeast  Level Estimated
Fri 07:13:00 AM -22.7243 -43.2928 152° Southeast  Level Estimated
Fri 07:14:00 AM -22.8089 -43.2436 152° Southeast  Level Estimated
Fri 07:15:00 AM -22.8089 -43.2436 137° Southeast  Level Estimated
Fri 07:16:00 AM -22.8089 -43.2436 137° Southeast  Level Estimated
Fri 07:17:00 AM -22.8089 -43.2436 137° Southeast  Level Estimated
Fri 07:18:00 AM -22.8089 -43.2436 137° Southeast  Level Estimated
Fri 07:19:00 AM -22.8089 -43.2436 137° Southeast  Level Estimated
Fri 07:20:00 AM -22.8089 -43.2436 137° Southeast  Level Estimated
Fri 07:21:00 AM -22.8089 -43.2436 137° Southeast  Level Estimated
Fri 07:22:00 AM -22.8089 -43.2436 137° Southeast  Level Estimated
Fri 07:23:00 AM -22.8089 -43.2436 137° Southeast  Level Estimated
Fri 07:24:00 AM -22.8089 -43.2436 137° Southeast  Level Estimated
Fri 07:25:00 AM -22.8089 -43.2436 137° Southeast  Level Estimated
Fri 07:26:00 AM -22.8089 -43.2436 137° Southeast  Level Estimated
Fri 07:27:00 AM -22.8089 -43.2436 137° Southeast  Level Estimated
Fri 07:28:00 AM -22.8089 -43.2436 137° Southeast  Level Estimated
Fri 07:29:00 AM -22.8089 -43.2436 137° Southeast  Level Estimated
Fri 07:30:00 AM -22.8089 -43.2436 137° Southeast  Level Estimated
Fri 07:31:00 AM -22.8089 -43.2436 137° Southeast  Level Estimated
Fri 07:32:00 AM -22.8089 -43.2436 137° Southeast  Level Estimated

Login

Don't have an account? Register now (free) for customized features, flight alerts, and more!